{"data":{"norad_id":64131,"intl_designator":"2025-111J","name":"STARLINK-11720 [DTC]","alt_names":[],"object_type":"PAYLOAD","status":"ACTIVE","operator":null,"country":"US","launch_date":"2025-05-24","launch_site_code":"AFETR","launch_vehicle":null,"mission":null,"orbit_class":"UNKNOWN","rcs_meters":null,"size_class":null,"mass_kg":null,"dimensions":null,"purposes":["comms"],"wikipedia_slug":null,"has_3d_model":false,"image_url":null,"decayed_at":null,"tle_current":{"epoch":"2026-09-20T23:14:02.035104Z","epoch_age_seconds":100018,"freshness":"FRESH","line1":"1 64131U 25111J   26263.96807911  .00106780  00000+0  82420-3 0  9995","line2":"2 64131  43.0007 236.5678 0002111 254.8359 105.2275 15.70862345 77309","mean_motion":15.70862345,"eccentricity":0.0002111,"inclination_deg":43.0007,"raan_deg":236.5678,"arg_perigee_deg":254.8359,"mean_anomaly_deg":105.2275,"bstar":0.0008242,"rev_number":7730,"period_min":91.669394494271,"perigee_km":355.00952878749,"apogee_km":357.85286347989,"semimajor_km":6734.5681961337,"source":"CELESTRAK","updated_at":"2026-09-21T09:00:35.234000Z"}}}